EUTELSAT 65 WEST A

Last updated on Tue Oct 14 2025 00:02:48 GMT+0000 (Coordinated Universal Time)

1 41382U 16014A 25286.54596503 -.00000289 00000+0 00000+0 0 9998 2 41382 0.0834 48.5088 0002329 162.1564 303.0685 1.00271599 35062
UTC large
Height (km)
Speed (km/s)
/
Latitude / Longitude
Inclination (degrees)
Orbital Period (minutes)
Azimuth
Elevation
Range (km)
Doppler Factor

Next 0 passes for location: London (51.5072 / 0.1276)

Sorry there are no passes over London.